Location: Broekland
(52.3610°N, 6.2005°E)
Time: 17:42:25
(UTC+00:00)

ATLAS 3B R/B - Pass Details

Date: 19 May 2025
Orbit: 935 x 1258 km, 63.8° (Epoch: 16 June)

Event Time Altitude Azimuth Distance (km) Brightness Sun altitude
Exits shadow 21:30:07 17° 143° (SE) 2,630 4.1 -13.0°
Maximum altitude 21:33:37 23° 108° (ESE) 2,311 4.1 -13.2°
Drops below altitude 10° 21:39:20 10° 60° (ENE) 3,214 5.2 -13.6°
Sets 21:42:48 0° 47° (NE) 4,208 6.0 -13.9°
